Wind_Speed
30 30 30 30 30 31 32 32 34 32 32 31 31 32 31 31 31 32 32 32 32 33 33 33 33 33 33 33 34 34 35 35 36 36 36 36 37 37 38 38 39 39 40 40
29 30 30 31 31 31 32 33 33 34 32 31 32 32 32 31 32 32 33 33 33 33 33 32 32 33 33 33 33 33 33 33 34 34 35 35 36 37 37 37 37 37 38 38
31 30 31 32 30 30 31 32 33 34 33 33 33 32 32 31 31 32 33 33 32 32 32 32 32 32 33 33 32 32 32 32 33 34 34 34 35 35 35 35 36 36 36 36
31 30 31 31 30 30 31 32 33 33 32 32 32 32 32 32 32 32 32 32 32 32 32 32 32 32 32 32 32 32 32 32 32 33 33 33 34 34 34 34 34 35 35 35
29 30 30 30 30 30 31 31 31 32 31 31 31 32 32 32 32 32 32 31 32 32 32 32 32 31 31 30 30 30 31 31 31 32 32 32 32 33 33 32 32 32 33 33
28 29 29 28 28 29 30 30 28 28 28 28 29 29 29 30 30 30 30 29 29 29 29 29 29 30 29 29 29 29 29 29 30 30 30 31 30 31 31 31 31 31 31 32
27 28 28 28 27 27 28 28 27 27 27 27 27 28 28 28 28 28 28 28 27 27 27 27 28 28 28 27 27 27 27 28 28 29 29 29 29 29 29 30 30 30 29 29
26 27 27 27 27 27 26 26 26 26 26 26 26 27 26 26 26 27 27 26 26 26 26 26 27 27 27 27 27 27 27 28 28 28 27 28 27 28 28 27 26 26 26 26
25 26 27 26 25 25 25 25 25 26 26 26 27 26 25 25 25 25 25 25 25 25 24 24 24 25 25 25 25 25 26 27 27 27 26 25 25 26 26 25 25 24 24 24
25 25 26 26 26 25 25 25 25 26 27 27 27 26 25 24 24 23 23 23 23 23 23 23 22 23 23 23 23 24 24 24 24 25 24 23 23 22 22 22 22 22 21 21
26 26 26 25 25 25 25 26 26 26 26 26 26 25 24 24 23 23 22 22 22 22 22 22 22 22 22 22 22 22 22 22 22 21 21 20 20 19 19 19 19 19 18 18
26 26 25 25 25 25 25 25 25 25 25 25 25 24 24 24 23 22 22 22 22 22 22 22 22 21 21 20 20 19 19 20 20 19 19 19 17 17 16 16 16 16 17 16
25 25 26 25 24 24 24 24 25 25 25 24 23 23 23 23 23 22 22 22 22 22 21 21 20 19 19 19 19 18 18 18 18 17 17 16 16 16 15 14 14 15 16 16
25 25 25 24 24 24 24 24 23 23 23 23 23 23 22 22 23 22 22 22 21 21 20 19 19 18 18 18 18 17 17 17 17 16 16 16 15 15 15 15 14 14 14 15
24 24 24 24 24 24 23 23 22 22 22 23 22 22 22 22 21 21 21 21 20 19 18 18 18 18 18 17 17 16 16 16 16 16 16 16 16 15 15 14 14 14 14 14
24 24 23 24 24 23 23 23 23 22 22 22 22 22 22 22 21 21 20 20 19 18 17 17 17 16 16 16 16 16 16 15 15 15 16 16 15 14 14 14 14 13 13 14
23 24 24 24 24 24 24 23 23 23 22 22 22 22 22 22 22 22 21 20 19 18 18 17 17 16 16 16 16 15 15 16 15 15 14 14 14 13 13 13 13 12 13 13
24 24 24 24 24 24 24 23 23 23 23 22 22 22 22 22 22 22 22 21 20 19 18 18 17 16 16 16 16 15 15 15 14 14 13 13 12 12 12 12 12 12 12 12
24 24 23 23 23 24 24 24 23 22 22 22 22 22 22 22 21 21 20 19 18 17 17 17 17 16 16 15 15 14 14 14 13 12 12 12 12 11 11 11 11 11 11 11
24 23 23 23 24 24 24 23 23 22 22 22 22 22 22 21 20 19 18 17 16 16 16 16 16 15 15 14 13 13 12 12 11 11 11 11 11 10 10 10 10 9 9 9
24 23 23 24 24 24 23 23 22 22 22 22 21 21 20 20 18 17 16 16 15 15 14 14 14 14 13 12 12 12 11 10 10 9 9 8 8 8 8 8 8 8 9 9
23 23 23 24 24 23 22 21 21 21 21 20 20 19 18 17 16 15 15 15 15 15 14 14 13 13 12 11 10 10 10 9 9 8 8 7 7 7 7 7 8 8 8 8
22 22 22 22 22 22 21 21 20 20 20 19 18 17 16 15 15 14 14 14 14 14 14 13 13 13 12 11 9 9 9 8 8 8 7 7 7 7 7 7 8 8 8 8
21 21 21 21 20 20 20 19 19 19 18 18 17 17 16 15 15 14 14 14 13 13 12 12 12 12 12 11 10 9 9 8 7 7 7 7 7 7 7 8 8 8 8 8
20 20 20 19 18 18 18 17 17 17 16 16 15 15 14 14 14 14 13 12 12 11 11 11 12 12 12 11 10 9 9 8 8 7 7 8 8 8 8 8 8 8 8 8
19 19 18 18 17 16 16 16 15 15 14 14 13 13 13 13 13 12 12 11 11 11 11 11 12 12 12 12 11 10 10 9 8 8 8 8 8 8 8 8 8 8 8 7
18 17 17 16 15 15 14 13 13 13 13 12 12 12 12 11 11 11 11 11 11 11 12 12 12 13 12 12 12 11 10 10 9 8 8 8 8 8 8 8 7 7 7 7
Wind_Direction
281 282 283 283 281 278 278 278 279 280 280 281 281 281 280 280 280 280 280 281 279 277 275 273 271 270 269 269 268 268 268 269 270 270 270 270 270 271 272 271 270 269 269 268
280 281 282 282 280 278 278 279 279 278 280 281 280 279 279 279 279 279 280 280 278 276 274 274 272 270 269 268 268 269 270 271 272 271 271 271 272 273 273 272 270 270 269 268
281 281 282 281 282 281 281 280 279 280 280 279 279 280 280 280 279 279 280 279 277 275 273 273 273 272 269 268 268 269 270 271 272 273 273 273 274 275 274 273 271 270 268 267
283 283 283 286 283 282 281 280 279 279 280 281 280 280 280 280 280 279 279 277 275 274 273 273 273 273 271 269 269 270 271 272 274 274 275 275 275 275 274 273 273 272 269 268
286 287 288 287 286 285 282 281 280 280 281 282 282 281 281 281 281 281 280 280 277 276 274 273 273 272 271 270 270 270 271 273 275 276 277 277 276 276 274 273 273 272 270 268
286 289 291 291 288 286 284 283 283 282 282 284 285 285 284 282 281 281 281 280 278 277 275 273 272 271 270 271 272 273 273 275 276 278 280 280 279 278 275 275 274 272 270 268
284 287 290 291 289 288 286 287 285 284 285 286 287 288 288 286 284 283 282 280 278 277 276 274 273 272 270 271 272 272 274 276 278 280 281 280 278 278 277 276 275 272 269 267
285 286 290 291 289 288 288 287 286 286 286 287 288 289 289 288 285 284 281 279 279 278 277 275 273 272 271 271 271 272 274 276 278 280 281 281 280 279 277 276 274 272 270 269
287 288 289 289 289 289 287 286 286 286 287 288 289 289 288 287 286 284 282 280 278 278 277 275 274 273 273 273 273 274 276 278 279 280 281 280 281 279 277 275 273 271 269 267
287 290 290 289 287 286 285 285 286 287 286 287 288 289 287 287 287 286 285 283 281 279 277 275 274 274 274 275 275 276 278 279 280 281 280 280 280 278 275 274 271 268 267 266
287 290 291 288 286 285 284 285 286 287 287 286 286 287 287 287 287 286 285 284 283 280 278 276 274 275 275 276 277 277 277 279 279 279 278 279 279 276 275 275 271 266 265 266
285 286 288 288 287 286 285 286 286 286 286 287 287 287 287 288 288 287 285 284 283 281 280 278 275 274 273 275 275 277 277 278 279 278 277 278 278 277 274 272 268 266 265 265
283 286 286 286 286 285 285 286 286 287 286 287 288 288 287 287 286 285 284 284 282 281 279 278 275 272 271 273 274 275 276 278 278 277 277 276 276 274 272 270 268 267 265 265
282 286 287 286 284 285 286 287 286 287 287 288 288 288 287 287 286 285 286 285 283 280 278 275 273 271 271 272 272 273 275 276 276 276 275 276 275 273 271 270 269 270 269 269
285 288 288 285 284 284 285 287 287 288 289 288 287 287 288 288 288 287 286 285 282 280 276 273 272 271 270 270 270 272 274 275 274 272 272 272 272 272 271 268 268 269 269 268
286 288 287 286 285 283 284 286 287 287 288 286 284 285 287 288 288 288 286 283 280 277 273 272 273 271 268 268 270 273 275 275 275 272 271 271 271 271 267 265 265 266 268 269
286 288 287 285 284 283 284 284 285 285 285 284 283 284 285 286 287 286 284 281 278 275 271 270 271 269 267 269 272 274 273 273 274 274 273 271 271 269 265 263 263 264 266 268
286 287 286 284 283 283 283 283 284 284 284 284 284 285 285 285 286 285 282 280 276 273 271 269 268 266 266 269 272 272 272 272 271 272 272 270 270 267 263 264 266 265 265 265
285 286 284 283 282 283 283 283 284 284 285 284 284 285 285 286 285 284 281 277 273 271 269 267 265 263 264 267 269 270 270 270 269 269 268 268 266 265 265 264 263 261 260 260
285 285 284 284 284 284 283 284 283 282 284 285 286 287 286 285 283 280 277 275 273 270 267 265 263 262 262 265 267 267 267 268 266 266 266 264 262 261 262 260 258 254 252 254
284 283 283 283 284 284 283 283 282 282 283 285 286 287 285 283 278 276 274 273 272 269 266 264 261 259 259 262 264 263 262 262 262 262 261 259 257 255 256 256 256 253 253 255
284 284 284 285 284 283 283 282 281 282 283 285 285 284 283 279 274 273 273 272 270 268 265 260 256 254 252 254 256 257 257 256 255 254 252 253 253 253 254 257 260 259 259 259
284 284 285 285 283 282 282 281 281 281 282 281 280 279 277 273 271 271 271 271 269 266 261 254 249 247 243 245 249 252 253 250 246 245 245 247 250 251 253 258 260 260 259 261
283 284 285 285 284 283 282 281 279 280 281 278 275 274 272 271 270 270 269 268 266 261 253 246 241 238 237 239 242 245 244 241 241 242 244 246 250 251 252 256 259 261 262 262
282 284 285 284 284 284 284 283 281 280 281 278 275 274 271 270 269 268 266 263 260 253 245 240 236 234 234 235 236 236 235 235 239 241 244 247 248 249 252 257 261 264 265 263
282 283 283 283 284 284 284 283 281 279 279 278 277 274 271 269 267 263 258 253 250 246 241 236 232 229 229 231 232 231 231 234 239 242 245 246 248 251 255 260 264 266 265 261
282 283 283 282 283 282 281 280 279 278 278 277 276 273 271 268 265 257 250 246 243 240 237 232 229 227 227 229 229 229 231 235 238 241 244 247 250 255 259 260 262 263 261 260
Height
5601 5600 5598 5597 5595 5593 5591 5590 5588 5588 5587 5587 5584 5582 5580 5579 5577 5576 5575 5573 5572 5570 5569 5569 5568 5567 5566 5565 5565 5565 5564 5564 5564 5563 5562 5562 5561 5560 5559 5559 5558 5558 5557 5557
5592 5591 5589 5587 5586 5584 5583 5581 5579 5577 5578 5577 5574 5572 5571 5569 5568 5566 5565 5563 5562 5561 5560 5559 5558 5557 5556 5555 5555 5554 5554 5554 5553 5553 5552 5551 5551 5550 5549 5548 5547 5546 5546 5546
5583 5582 5579 5578 5578 5576 5574 5572 5570 5568 5569 5566 5565 5563 5562 5560 5559 5557 5555 5553 5552 5551 5550 5549 5548 5547 5546 5546 5545 5545 5545 5544 5543 5542 5542 5541 5540 5539 5538 5537 5536 5535 5535 5535
5574 5574 5571 5573 5569 5567 5565 5563 5561 5559 5558 5556 5555 5553 5552 5550 5549 5547 5545 5544 5542 5541 5540 5539 5538 5537 5537 5536 5536 5536 5535 5534 5533 5532 5531 5531 5530 5529 5528 5527 5526 5525 5525 5525
5565 5563 5562 5563 5561 5558 5555 5554 5553 5550 5549 5547 5545 5544 5543 5541 5539 5537 5535 5534 5532 5531 5530 5529 5528 5528 5527 5527 5527 5526 5525 5525 5524 5523 5522 5521 5520 5519 5518 5517 5516 5515 5515 5515
5557 5554 5553 5555 5552 5548 5546 5545 5545 5542 5540 5538 5537 5535 5535 5532 5529 5527 5525 5524 5522 5521 5520 5520 5519 5518 5518 5518 5518 5517 5516 5515 5514 5513 5512 5512 5510 5509 5508 5507 5507 5506 5505 5505
5549 5546 5545 5546 5543 5540 5539 5538 5536 5533 5532 5530 5528 5527 5525 5522 5520 5518 5516 5515 5513 5512 5511 5511 5510 5510 5509 5509 5509 5508 5507 5507 5505 5504 5503 5502 5501 5500 5499 5498 5497 5497 5496 5496
5541 5539 5540 5537 5534 5533 5531 5529 5527 5525 5524 5522 5520 5518 5516 5513 5511 5509 5508 5506 5505 5504 5503 5502 5502 5501 5501 5501 5500 5500 5499 5498 5497 5496 5494 5494 5493 5491 5490 5489 5488 5488 5488 5488
5535 5535 5531 5529 5527 5525 5523 5521 5519 5517 5516 5514 5512 5510 5508 5505 5503 5501 5500 5498 5497 5496 5495 5494 5494 5493 5493 5493 5492 5492 5491 5490 5489 5487 5486 5485 5484 5483 5482 5481 5481 5481 5481 5481
5527 5526 5524 5521 5519 5517 5515 5513 5511 5510 5508 5506 5504 5502 5500 5498 5496 5494 5492 5491 5490 5488 5488 5487 5486 5486 5486 5485 5485 5484 5483 5482 5481 5480 5479 5477 5476 5476 5475 5475 5474 5474 5474 5475
5519 5518 5516 5514 5511 5509 5507 5506 5504 5502 5500 5498 5497 5495 5493 5491 5489 5487 5485 5484 5482 5481 5480 5480 5479 5479 5479 5478 5478 5477 5476 5475 5474 5473 5472 5471 5470 5470 5469 5469 5468 5469 5469 5469
5512 5510 5508 5506 5504 5502 5500 5499 5497 5495 5493 5491 5489 5487 5485 5484 5482 5480 5478 5477 5475 5474 5473 5473 5472 5472 5472 5472 5471 5471 5470 5469 5468 5468 5467 5466 5465 5465 5464 5464 5464 5464 5464 5465
5503 5502 5500 5498 5496 5495 5493 5491 5489 5488 5486 5484 5482 5480 5478 5477 5475 5473 5471 5470 5469 5467 5466 5466 5465 5465 5465 5465 5465 5465 5464 5463 5463 5462 5462 5461 5461 5460 5460 5460 5460 5460 5460 5460
5495 5494 5492 5491 5489 5488 5486 5484 5482 5480 5479 5477 5475 5473 5472 5470 5468 5466 5465 5463 5462 5461 5460 5460 5459 5459 5459 5459 5459 5459 5459 5458 5458 5457 5457 5457 5456 5456 5456 5456 5456 5455 5455 5455
5488 5486 5485 5483 5482 5480 5479 5477 5475 5474 5472 5470 5468 5467 5465 5464 5462 5460 5459 5457 5456 5455 5454 5454 5454 5454 5454 5454 5454 5454 5453 5453 5452 5452 5452 5452 5452 5452 5452 5451 5451 5451 5451 5450
5480 5478 5477 5475 5474 5473 5471 5470 5468 5467 5465 5463 5462 5460 5459 5457 5456 5454 5453 5451 5450 5450 5449 5449 5449 5449 5449 5449 5449 5449 5448 5448 5448 5447 5447 5447 5447 5447 5447 5447 5447 5447 5447 5446
5472 5471 5469 5468 5467 5465 5464 5463 5461 5459 5458 5456 5455 5453 5452 5450 5449 5448 5447 5445 5445 5444 5444 5444 5444 5443 5444 5444 5444 5444 5443 5443 5443 5443 5443 5442 5442 5442 5443 5443 5443 5443 5443 5443
5464 5463 5461 5460 5459 5458 5456 5455 5453 5452 5450 5449 5447 5446 5445 5444 5442 5441 5440 5439 5439 5438 5438 5438 5438 5438 5438 5438 5439 5439 5439 5438 5438 5438 5438 5438 5438 5438 5438 5438 5438 5438 5439 5439
5456 5455 5454 5452 5451 5449 5448 5447 5446 5444 5443 5441 5440 5439 5438 5436 5435 5434 5433 5432 5432 5432 5433 5432 5432 5433 5433 5433 5434 5434 5434 5434 5434 5434 5434 5434 5434 5434 5434 5434 5434 5435 5435 5435
5449 5447 5446 5444 5443 5442 5440 5439 5438 5436 5435 5434 5433 5432 5431 5429 5428 5427 5426 5426 5426 5426 5426 5426 5427 5427 5428 5428 5429 5429 5429 5430 5430 5430 5430 5430 5431 5431 5431 5431 5431 5431 5432 5432
5441 5439 5438 5437 5435 5434 5433 5431 5430 5429 5428 5427 5426 5425 5423 5422 5421 5421 5420 5420 5421 5420 5421 5421 5422 5423 5423 5424 5425 5425 5425 5426 5426 5426 5427 5427 5427 5427 5428 5428 5428 5429 5429 5430
5433 5432 5430 5429 5427 5426 5425 5424 5423 5422 5421 5420 5419 5418 5417 5416 5416 5415 5415 5415 5415 5415 5415 5416 5417 5418 5419 5420 5421 5421 5422 5422 5423 5423 5424 5424 5425 5425 5425 5426 5426 5426 5427 5427
5425 5424 5423 5421 5420 5419 5418 5416 5415 5414 5414 5413 5412 5411 5411 5411 5410 5410 5410 5410 5410 5410 5410 5411 5412 5414 5415 5416 5417 5418 5419 5419 5420 5421 5421 5422 5422 5423 5423 5424 5424 5424 5424 5425
5417 5416 5415 5414 5412 5411 5410 5409 5408 5407 5407 5406 5406 5405 5405 5405 5405 5405 5405 5405 5405 5405 5406 5407 5408 5410 5411 5413 5414 5415 5416 5416 5417 5418 5419 5419 5420 5420 5421 5421 5422 5422 5422 5422
5410 5409 5408 5407 5406 5404 5403 5403 5402 5401 5401 5400 5400 5400 5400 5400 5400 5400 5400 5400 5400 5401 5402 5403 5405 5406 5408 5410 5411 5412 5413 5414 5415 5416 5416 5417 5417 5418 5418 5419 5419 5419 5419 5419
5403 5402 5401 5400 5399 5398 5398 5397 5396 5396 5395 5395 5395 5395 5394 5394 5394 5395 5395 5396 5396 5397 5399 5400 5401 5403 5405 5406 5408 5409 5410 5411 5412 5413 5414 5414 5415 5415 5416 5416 5416 5416 5416 5416
5397 5396 5395 5395 5394 5393 5392 5392 5391 5391 5391 5390 5390 5390 5390 5390 5390 5390 5391 5392 5393 5394 5395 5397 5398 5400 5402 5403 5405 5406 5407 5408 5409 5410 5411 5412 5412 5412 5413 5413 5413 5413 5413 5414